When you browse on this site, cookies collect data to enhance your experience and personalize the content and advertising you see.
Visit our Privacy Policy to learn more. By continuing to use the site, you agree to this use of cookies and data.
EN

Hourly Weather Stafford

Today, 20 September, Sunday

Time Temperature Precipitation Wind Pressure Humidity
00:00 +10°C° 0 mm 4 mps 757 mmHg 93%
01:00 +10°C° 0 mm 4 mps 757 mmHg 93%
02:00 +10°C° 0 mm 4 mps 757 mmHg 94%
03:00 +10°C° 0 mm 4 mps 757 mmHg 95%
04:00 +11°C° 0 mm 4 mps 757 mmHg 93%
05:00 +10°C° 0 mm 5 mps 757 mmHg 91%
06:00 +12°C° 0 mm 5 mps 757 mmHg 89%
07:00 +13°C° 0 mm 5 mps 757 mmHg 87%
08:00 +13°C° 0 mm 5 mps 757 mmHg 85%
09:00 +14°C° 0 mm 5 mps 758 mmHg 83%
10:00 +15°C° 0 mm 5 mps 757 mmHg 80%
11:00 +15°C° 0 mm 5 mps 757 mmHg 77%
12:00 +17°C° 0 mm 4 mps 757 mmHg 74%
13:00 +18°C° 0 mm 4 mps 757 mmHg 73%
14:00 +18°C° 0 mm 4 mps 757 mmHg 72%
15:00 +19°C° 0 mm 4 mps 756 mmHg 70%
16:00 +17°C° 0 mm 4 mps 756 mmHg 75%
17:00 +16°C° 0 mm 3 mps 757 mmHg 80%
18:00 +14°C° 0 mm 3 mps 757 mmHg 86%
19:00 +13°C° 0 mm 3 mps 757 mmHg 89%
20:00 +12°C° 0 mm 3 mps 757 mmHg 92%
21:00 +11°C° 0 mm 3 mps 757 mmHg 95%
22:00 +10°C° 0 mm 3 mps 757 mmHg 95%
23:00 +10°C° 0 mm 2 mps 757 mmHg 96%

Tomorrow, 21 September, Monday

Time Temperature Precipitation Wind Pressure Humidity
00:00 +10°C° 0 mm 2 mps 757 mmHg 96%
01:00 +9°C° 0 mm 2 mps 756 mmHg 96%
02:00 +10°C° 0 mm 1 mps 756 mmHg 96%
03:00 +10°C° 0 mm 1 mps 756 mmHg 97%
04:00 +10°C° 0 mm 1 mps 756 mmHg 96%
05:00 +10°C° 0 mm 1 mps 755 mmHg 96%
06:00 +10°C° 0 mm 1 mps 755 mmHg 96%
07:00 +11°C° 0 mm 1 mps 755 mmHg 93%
08:00 +12°C° 0 mm 1 mps 755 mmHg 90%
09:00 +13°C° 0 mm 1 mps 755 mmHg 87%
10:00 +15°C° 0 mm 1 mps 755 mmHg 81%
11:00 +18°C° 0 mm 1 mps 755 mmHg 75%
12:00 +20°C° 0 mm 1 mps 754 mmHg 69%
13:00 +20°C° 0 mm 1 mps 754 mmHg 67%
14:00 +21°C° 0 mm 1 mps 754 mmHg 65%
15:00 +22°C° 0 mm 1 mps 753 mmHg 63%
16:00 +20°C° 0 mm 1 mps 753 mmHg 70%
17:00 +19°C° 0 mm 1 mps 753 mmHg 76%
18:00 +18°C° 0 mm 1 mps 752 mmHg 83%
19:00 +16°C° 0 mm 1 mps 752 mmHg 84%
20:00 +15°C° 0 mm 1 mps 752 mmHg 86%
21:00 +14°C° 0 mm 0 mps 752 mmHg 88%
22:00 +13°C° 0 mm 0 mps 752 mmHg 89%
23:00 +14°C° 0 mm 1 mps 752 mmHg 90%

Day after tomorrow, 22 September, Tuesday

Time Temperature Precipitation Wind Pressure Humidity
00:00 +14°C° 0 mm 1 mps 751 mmHg 91%
01:00 +13°C° 0 mm 1 mps 751 mmHg 92%
02:00 +13°C° 0 mm 1 mps 750 mmHg 92%
03:00 +13°C° 0 mm 1 mps 749 mmHg 93%
04:00 +13°C° 0 mm 1 mps 749 mmHg 93%
05:00 +13°C° 0 mm 1 mps 749 mmHg 94%
06:00 +13°C° 0 mm 2 mps 748 mmHg 94%
07:00 +15°C° 0 mm 2 mps 748 mmHg 91%
08:00 +17°C° 0 mm 3 mps 748 mmHg 87%
09:00 +18°C° 0 mm 3 mps 747 mmHg 84%
10:00 +19°C° 0 mm 4 mps 747 mmHg 79%
11:00 +21°C° 0 mm 4 mps 746 mmHg 74%
12:00 +22°C° 0 mm 5 mps 746 mmHg 69%
13:00 +21°C° 0.1 mm 5 mps 745 mmHg 71%
14:00 +21°C° 0.1 mm 5 mps 745 mmHg 73%
15:00 +20°C° 0.1 mm 5 mps 744 mmHg 74%
16:00 +19°C° 0 mm 4 mps 744 mmHg 77%
17:00 +18°C° 0 mm 4 mps 744 mmHg 80%
18:00 +17°C° 0 mm 3 mps 743 mmHg 82%
19:00 +17°C° 0 mm 3 mps 743 mmHg 83%
20:00 +16°C° 0 mm 3 mps 743 mmHg 83%
21:00 +15°C° 0 mm 4 mps 743 mmHg 84%
22:00 +14°C° 0 mm 3 mps 743 mmHg 86%
23:00 +13°C° 0 mm 3 mps 742 mmHg 87%

23 September, Wednesday

Time Temperature Precipitation Wind Pressure Humidity
00:00 +12°C° 0 mm 3 mps 742 mmHg 89%
01:00 +12°C° 0 mm 3 mps 742 mmHg 90%
02:00 +12°C° 0 mm 3 mps 741 mmHg 90%
03:00 +12°C° 0 mm 2 mps 741 mmHg 91%
04:00 +11°C° 0.7 mm 3 mps 741 mmHg 91%
05:00 +11°C° 0.7 mm 3 mps 741 mmHg 92%
06:00 +11°C° 0.7 mm 3 mps 741 mmHg 93%
07:00 +11°C° 0.3 mm 3 mps 740 mmHg 91%
08:00 +12°C° 0.3 mm 2 mps 740 mmHg 90%
09:00 +13°C° 0.3 mm 2 mps 739 mmHg 89%
10:00 +11°C° 0.6 mm 3 mps 739 mmHg 90%
11:00 +11°C° 0.6 mm 3 mps 739 mmHg 92%
12:00 +11°C° 0.6 mm 4 mps 739 mmHg 93%
13:00 +11°C° 0.4 mm 4 mps 738 mmHg 92%
14:00 +11°C° 0.4 mm 4 mps 738 mmHg 90%
15:00 +11°C° 0.4 mm 3 mps 738 mmHg 89%
16:00 +10°C° 1 mm 4 mps 737 mmHg 89%
17:00 +8°C° 1 mm 4 mps 737 mmHg 89%
18:00 +8°C° 1 mm 4 mps 737 mmHg 89%
19:00 +7°C° 0.3 mm 5 mps 737 mmHg 88%
20:00 +7°C° 0.3 mm 5 mps 738 mmHg 86%
21:00 +6°C° 0.3 mm 5 mps 738 mmHg 85%
22:00 +6°C° 0 mm 5 mps 738 mmHg 86%
23:00 +6°C° 0 mm 5 mps 738 mmHg 87%

24 September, Thursday

Time Temperature Precipitation Wind Pressure Humidity
00:00 +5°C° 0 mm 5 mps 739 mmHg 88%
01:00 +5°C° 0 mm 4 mps 738 mmHg 89%
02:00 +5°C° 0 mm 3 mps 738 mmHg 91%
03:00 +5°C° 0 mm 3 mps 738 mmHg 92%
04:00 +5°C° 0.2 mm 3 mps 737 mmHg 92%
05:00 +5°C° 0.2 mm 3 mps 737 mmHg 92%
06:00 +7°C° 0.2 mm 3 mps 736 mmHg 92%
07:00 +7°C° 0.8 mm 4 mps 736 mmHg 89%
08:00 +8°C° 0.8 mm 5 mps 735 mmHg 86%
09:00 +8°C° 0.8 mm 5 mps 735 mmHg 83%
10:00 +9°C° 0.5 mm 5 mps 735 mmHg 78%
11:00 +10°C° 0.5 mm 5 mps 735 mmHg 73%
12:00 +12°C° 0.5 mm 5 mps 735 mmHg 68%
13:00 +12°C° 0.4 mm 4 mps 735 mmHg 67%
14:00 +12°C° 0.4 mm 3 mps 735 mmHg 67%
15:00 +12°C° 0.4 mm 3 mps 736 mmHg 67%
16:00 +11°C° 0.7 mm 3 mps 736 mmHg 72%
17:00 +10°C° 0.7 mm 3 mps 736 mmHg 77%
18:00 +8°C° 0.7 mm 4 mps 736 mmHg 82%
19:00 +7°C° 0 mm 4 mps 737 mmHg 84%
20:00 +6°C° 0 mm 4 mps 738 mmHg 86%
21:00 +5°C° 0 mm 5 mps 739 mmHg 88%
22:00 +5°C° 0 mm 5 mps 740 mmHg 87%
23:00 +5°C° 0 mm 5 mps 740 mmHg 86%

25 September, Friday

Time Temperature Precipitation Wind Pressure Humidity
00:00 +5°C° 0 mm 5 mps 741 mmHg 84%
01:00 +5°C° 0 mm 5 mps 742 mmHg 84%
02:00 +5°C° 0 mm 5 mps 742 mmHg 84%
03:00 +5°C° 0 mm 5 mps 742 mmHg 83%
04:00 +3°C° 0 mm 5 mps 743 mmHg 83%
05:00 +4°C° 0 mm 4 mps 744 mmHg 82%
06:00 +4°C° 0 mm 4 mps 744 mmHg 82%
07:00 +5°C° 0 mm 4 mps 745 mmHg 76%
08:00 +6°C° 0 mm 5 mps 745 mmHg 71%
09:00 +8°C° 0 mm 6 mps 746 mmHg 66%
10:00 +9°C° 0 mm 6 mps 746 mmHg 62%
11:00 +10°C° 0 mm 6 mps 747 mmHg 58%
12:00 +12°C° 0 mm 5 mps 747 mmHg 54%
13:00 +12°C° 0 mm 5 mps 747 mmHg 55%
14:00 +12°C° 0 mm 5 mps 748 mmHg 55%
15:00 +12°C° 0 mm 5 mps 748 mmHg 55%
16:00 +11°C° 0 mm 4 mps 748 mmHg 61%
17:00 +8°C° 0 mm 4 mps 748 mmHg 67%
18:00 +8°C° 0 mm 3 mps 748 mmHg 73%
19:00 +7°C° 0 mm 3 mps 748 mmHg 75%
20:00 +6°C° 0 mm 2 mps 749 mmHg 77%
21:00 +6°C° 0 mm 2 mps 749 mmHg 78%
22:00 +5°C° 0 mm 2 mps 748 mmHg 80%
23:00 +6°C° 0 mm 1 mps 748 mmHg 82%
Show more